Eko 4 — SVAR8 — position and weather

sailwx.info

Track history (hours):
 
Tides and Currents Weather Stations Pressure Air Temp Water Temp Dewpoint Dewpoint Depression Visibility Wind Speed Wind Dir Waves Ship Positions

Eko 4

Last reported at 2014-Oct-23 12:23 UTC. Time now 2014-Oct-23 15:14 UTC.
Position N 38°02' E 023°36'.

Length 88 m; draft 5 m.

Type: Ship (hazmat cat A). MMSI: 240912000.

Date/timePositionNaut miles runAvg speedWind from/ knotsBaromVisibWave heightAir tempDewpointWater temp
2014-Oct-23 12:23N 38°02' E 023°36'0 0.0
2014-Oct-23 09:29N 38°02' E 023°36'0 0.0
2014-Oct-23 08:29N 38°02' E 023°36'0 0.0
2014-Oct-23 07:29N 38°02' E 023°36'0 0.0
2014-Oct-22 17:33N 38°02' E 023°36'2 2.5
2014-Oct-22 16:33N 38°01' E 023°33'7 6.9
2014-Oct-22 15:33N 37°55' E 023°37'9 8.9
2014-Oct-22 14:33N 37°47' E 023°42'19 9.1
2014-Oct-22 12:27N 37°36' E 024°02'  
2014-Oct-16 19:29N 37°57' E 024°36'1010.2
2014-Oct-16 18:29N 37°50' E 024°27'2110.6
2014-Oct-16 16:33N 37°37' E 024°07'1010.5
2014-Oct-16 15:33N 37°37' E 023°54'10 9.7
2014-Oct-16 14:33N 37°40' E 023°42'10 9.9
2014-Oct-16 13:33N 37°49' E 023°37'9 8.7
2014-Oct-16 12:33N 37°57' E 023°34'4 0.4
2014-Oct-16 02:17N 38°01' E 023°36'0 0.0
2014-Oct-15 23:17N 38°01' E 023°36'0 0.0
2014-Oct-15 22:29N 38°01' E 023°36'0 0.0
2014-Oct-15 21:29N 38°01' E 023°36'0 0.0
2014-Oct-15 20:33N 38°01' E 023°36'3 2.6
2014-Oct-15 19:33N 38°01' E 023°32'0 0.1
2014-Oct-15 18:32N 38°01' E 023°32'0 0.0
2014-Oct-15 17:32N 38°01' E 023°32'0 0.0
2014-Oct-15 16:32N 38°01' E 023°32'0 0.0
2014-Oct-15 15:33N 38°01' E 023°32'0 0.0
2014-Oct-15 14:33N 38°01' E 023°32'0 0.0
2014-Oct-15 13:33N 38°01' E 023°32'0 0.0
2014-Oct-15 12:33N 38°01' E 023°32'4 4.4
2014-Oct-15 11:34N 37°57' E 023°34'8 7.9
2014-Oct-15 10:33N 37°51' E 023°39'1110.9
2014-Oct-15 09:33N 37°41' E 023°45'1210.8
2014-Oct-15 08:29N 37°33' E 023°55'1010.6
2014-Oct-15 07:33N 37°26' E 024°05'1110.6
2014-Oct-15 06:33N 37°19' E 024°14'1010.2
2014-Oct-15 05:32N 37°15' E 024°27'1010.3
2014-Oct-15 04:33N 37°10' E 024°38'1110.8
2014-Oct-15 03:33N 37°02' E 024°47'1010.3
2014-Oct-15 02:33N 36°55' E 024°56'1010.4
2014-Oct-15 01:33N 36°51' E 025°08'1010.5
2014-Oct-15 00:33N 36°49' E 025°21'1010.3
2014-Oct-14 23:33N 36°45' E 025°33'1010.1
2014-Oct-14 22:33N 36°43' E 025°45'10 9.8
2014-Oct-14 21:33N 36°43' E 025°57'1010.1
2014-Oct-14 20:33N 36°44' E 026°10'1010.2
2014-Oct-14 19:33N 36°46' E 026°22'16 1.2
2014-Oct-14 06:29N 36°35' E 026°36'9 9.5
2014-Oct-14 05:33N 36°29' E 026°28'10 9.7
2014-Oct-14 04:33N 36°22' E 026°19'10 9.7
2014-Oct-14 03:33N 36°16' E 026°11'10 9.7
2014-Oct-14 02:33N 36°09' E 026°02'10 9.9
2014-Oct-14 01:33N 36°03' E 025°53'1010.1
2014-Oct-14 00:33N 35°56' E 025°44'1010.3
2014-Oct-13 23:33N 35°49' E 025°34'1010.3
2014-Oct-13 22:33N 35°42' E 025°25'1110.6
2014-Oct-13 21:33N 35°34' E 025°16'  
Track history (hours):
 
Tides and Currents Weather Stations Pressure Air Temp Water Temp Dewpoint Dewpoint Depression Visibility Wind Speed Wind Dir Waves Ship Positions

Eko 4

Last reported at 2014-Oct-23 12:23 UTC. Time now 2014-Oct-23 15:14 UTC.
Position N 38°02' E 023°36'.

Length 88 m; draft 5 m.

Type: Ship (hazmat cat A). MMSI: 240912000.

Date/timePositionNaut miles runAvg speedWind from/ knotsBaromVisibWave heightAir tempDewpointWater temp
2014-Oct-23 12:23N 38°02' E 023°36'0 0.0
2014-Oct-23 09:29N 38°02' E 023°36'0 0.0
2014-Oct-23 08:29N 38°02' E 023°36'0 0.0
2014-Oct-23 07:29N 38°02' E 023°36'0 0.0
2014-Oct-22 17:33N 38°02' E 023°36'2 2.5
2014-Oct-22 16:33N 38°01' E 023°33'7 6.9
2014-Oct-22 15:33N 37°55' E 023°37'9 8.9
2014-Oct-22 14:33N 37°47' E 023°42'19 9.1
2014-Oct-22 12:27N 37°36' E 024°02'  
2014-Oct-16 19:29N 37°57' E 024°36'1010.2
2014-Oct-16 18:29N 37°50' E 024°27'2110.6
2014-Oct-16 16:33N 37°37' E 024°07'1010.5
2014-Oct-16 15:33N 37°37' E 023°54'10 9.7
2014-Oct-16 14:33N 37°40' E 023°42'10 9.9
2014-Oct-16 13:33N 37°49' E 023°37'9 8.7
2014-Oct-16 12:33N 37°57' E 023°34'4 0.4
2014-Oct-16 02:17N 38°01' E 023°36'0 0.0
2014-Oct-15 23:17N 38°01' E 023°36'0 0.0
2014-Oct-15 22:29N 38°01' E 023°36'0 0.0
2014-Oct-15 21:29N 38°01' E 023°36'0 0.0
2014-Oct-15 20:33N 38°01' E 023°36'3 2.6
2014-Oct-15 19:33N 38°01' E 023°32'0 0.1
2014-Oct-15 18:32N 38°01' E 023°32'0 0.0
2014-Oct-15 17:32N 38°01' E 023°32'0 0.0
2014-Oct-15 16:32N 38°01' E 023°32'0 0.0
2014-Oct-15 15:33N 38°01' E 023°32'0 0.0
2014-Oct-15 14:33N 38°01' E 023°32'0 0.0
2014-Oct-15 13:33N 38°01' E 023°32'0 0.0
2014-Oct-15 12:33N 38°01' E 023°32'4 4.4
2014-Oct-15 11:34N 37°57' E 023°34'8 7.9
2014-Oct-15 10:33N 37°51' E 023°39'1110.9
2014-Oct-15 09:33N 37°41' E 023°45'1210.8
2014-Oct-15 08:29N 37°33' E 023°55'1010.6
2014-Oct-15 07:33N 37°26' E 024°05'1110.6
2014-Oct-15 06:33N 37°19' E 024°14'1010.2
2014-Oct-15 05:32N 37°15' E 024°27'1010.3
2014-Oct-15 04:33N 37°10' E 024°38'1110.8
2014-Oct-15 03:33N 37°02' E 024°47'1010.3
2014-Oct-15 02:33N 36°55' E 024°56'1010.4
2014-Oct-15 01:33N 36°51' E 025°08'1010.5
2014-Oct-15 00:33N 36°49' E 025°21'1010.3
2014-Oct-14 23:33N 36°45' E 025°33'1010.1
2014-Oct-14 22:33N 36°43' E 025°45'10 9.8
2014-Oct-14 21:33N 36°43' E 025°57'1010.1
2014-Oct-14 20:33N 36°44' E 026°10'1010.2
2014-Oct-14 19:33N 36°46' E 026°22'16 1.2
2014-Oct-14 06:29N 36°35' E 026°36'9 9.5
2014-Oct-14 05:33N 36°29' E 026°28'10 9.7
2014-Oct-14 04:33N 36°22' E 026°19'10 9.7
2014-Oct-14 03:33N 36°16' E 026°11'10 9.7
2014-Oct-14 02:33N 36°09' E 026°02'10 9.9
2014-Oct-14 01:33N 36°03' E 025°53'1010.1
2014-Oct-14 00:33N 35°56' E 025°44'1010.3
2014-Oct-13 23:33N 35°49' E 025°34'1010.3
2014-Oct-13 22:33N 35°42' E 025°25'1110.6
2014-Oct-13 21:33N 35°34' E 025°16'  

Dump ship's entire track history